Regional Weather Roundup
Issued by NWS

Home | Current Version | Previous Version | Text Only | Print | Product List | Glossary On
Versions: 1 2 3 4 5 6 7 8 9 10 11 12 13 14 15 16 17 18 19 20 21 22 23 24 25 26 27 28 29 30 31 32 33 34 35 36 37 38 39 40 41 42 43 44 45 46 47 48 49 50
000
ASUS45 KPSR 241210
RWRAZ

ARIZONA REGIONAL HOURLY WEATHER ROUNDUP
NATIONAL WEATHER SERVICE PHOENIX AZ
500 AM MST THU APR 24 2014

NOTE: FAIR INDICATES FEW OR NO CLOUDS BELOW 12,000 FEET WITH NO
SIGNIFICANT WEATHER AND/OR OBSTRUCTIONS TO VISIBILITY.

AZZ001>003-036-241300-
NORTHWEST ARIZONA

CITY           SKY/WX    TMP DP  RH WIND       PRES   REMARKS
BULLHEAD CITY  CLEAR     59  10  14 NE5       29.90R
KINGMAN        PTCLDY    47   8  20 NE3       29.99S
6HR MIN TEMP:  42; 6HR MAX TEMP:  52;

$$

AZZ004>008-015-016-018-241300-
NORTH CENTRAL ARIZONA

CITY           SKY/WX    TMP DP  RH WIND       PRES   REMARKS
GRAND CANYON   MOCLDY    20   8  60 CALM      30.12R
6HR MIN TEMP:  20; 6HR MAX TEMP:  28;

WILLIAMS       MOCLDY    32   9  37 SE10      30.18R WCI  24
PRESCOTT       PTCLDY    39  12  33 SW5       30.05S
6HR MIN TEMP:  38; 6HR MAX TEMP:  52;

FLAGSTAFF      PTCLDY    23  10  57 CALM      30.13S
6HR MIN TEMP:  23; 6HR MAX TEMP:  34;

PAYSON         PTCLDY    43  10  26 CALM      30.08S
PAGE           PTCLDY    46  11  24 SE5       30.07R
6HR MIN TEMP:  46; 6HR MAX TEMP:  57;

$$

AZZ009>014-017-241300-
NORTHEAST ARIZONA

CITY           SKY/WX    TMP DP  RH WIND       PRES   REMARKS
WINSLOW        PTCLDY    35  12  38 CALM      30.10R
6HR MIN TEMP:  35; 6HR MAX TEMP:  45;

SAINT JOHNS    MOCLDY    32   8  36 CALM      30.09R
6HR MIN TEMP:  31; 6HR MAX TEMP:  47;

WINDOW ROCK    PTCLDY    21   9  59 SW6       30.12R WCI  13
6HR MIN TEMP:  21; 6HR MAX TEMP:  38;

SHOW LOW       PTCLDY    28   7  40 CALM      30.14R
$$

AZZ023-241300-
GREATER PHOENIX AREA

CITY           SKY/WX    TMP DP  RH WIND       PRES   REMARKS
PHOENIX        CLEAR     64  26  23 E8        29.88S
6HR MIN TEMP:  64; 6HR MAX TEMP:  74;

BUCKEYE          N/A     55  10  16 NE3       29.89R
LUKE AFB       NOT AVBL
6HR MIN TEMP:  56; 6HR MAX TEMP:  70;

DEER VALLEY    CLEAR     58  15  18 E7        29.89R
6HR MIN TEMP:  57; 6HR MAX TEMP:  69;

SCOTTSDALE     CLEAR     58  30  34 SW3       29.91S
6HR MIN TEMP:  58; 6HR MAX TEMP:  73;

MESA-GATEWAY   CLEAR     55  18  22 SE5       29.92S
$$

AZZ027-028-241300-
SOUTHWEST MARICOPA COUNTY AND PINAL COUNTY

CITY           SKY/WX    TMP DP  RH WIND       PRES   REMARKS
CASA GRANDE    CLEAR     54  14  20 CALM      29.91S
6HR MIN TEMP:  52; 6HR MAX TEMP:  68;

$$

AZZ503-504-507>509-241300-
SOUTHEAST ARIZONA

CITY           SKY/WX    TMP DP  RH WIND       PRES   REMARKS
TUCSON         CLEAR     53  17  24 SE5       29.98R
6HR MIN TEMP:  53; 6HR MAX TEMP:  64;

DAVIS-MONTHAN  CLEAR     53  15  21 S7        29.97R
6HR MIN TEMP:  52; 6HR MAX TEMP:  62;

NOGALES        CLEAR     45  19  35 E3        30.01S
6HR MIN TEMP:  45; 6HR MAX TEMP:  56;

SIERRA VISTA   PTCLDY    52  10  19 S5        30.05R
DOUGLAS        CLEAR     41  13  31 SE7       30.04R
6HR MIN TEMP:  41; 6HR MAX TEMP:  57;

SAFFORD        CLEAR     48   8  19 E5        29.98R
6HR MIN TEMP:  47; 6HR MAX TEMP:  62;

$$

AZZ020-021-025-026-031-241300-
SOUTHWEST ARIZONA

CITY           SKY/WX    TMP DP  RH WIND       PRES   REMARKS
YUMA           CLEAR     60  34  37 CALM      29.85S
6HR MIN TEMP:  60; 6HR MAX TEMP:  73;

$$

CAZ031-033-041-043-047-048-061-241300-
SOUTHERN CALIFORNIA

CITY           SKY/WX    TMP DP  RH WIND       PRES   REMARKS
DOWNTOWN L.A.  CLEAR     55  49  80 CALM      29.93S
6HR MIN TEMP:  55; 6HR MAX TEMP:  60;

L.A. AIRPORT   PTCLDY    56  48  74 E3        29.94S
6HR MIN TEMP:  56; 6HR MAX TEMP:  62;

SAN DIEGO      PTCLDY    60  50  69 E5        29.95F
6HR MIN TEMP:  60; 6HR MAX TEMP:  63;

BURBANK        CLEAR     54  35  48 CALM      29.93S
6HR MIN TEMP:  54; 6HR MAX TEMP:  62;

ONTARIO        CLEAR     56  42  59 CALM      29.94S
6HR MIN TEMP:  55; 6HR MAX TEMP:  63;

RIVERSIDE      CLEAR     53  42  66 CALM      29.94F
6HR MIN TEMP:  52; 6HR MAX TEMP:  62;

PALM SPRINGS   CLEAR     64  44  48 VRB3      29.88F
6HR MIN TEMP:  62; 6HR MAX TEMP:  74;

EL CENTRO NAS  CLEAR     60  41  49 SW7       29.85R
6HR MIN TEMP:  60; 6HR MAX TEMP:  70;

IMPERIAL       CLEAR     59  41  51 SW5       29.84R
6HR MIN TEMP:  57; 6HR MAX TEMP:  68;

BLYTHE         CLEAR     61  14  16 W9        29.86S
6HR MIN TEMP:  60; 6HR MAX TEMP:  73;

NEEDLES        CLEAR     61  10  13 S3        29.89S
6HR MIN TEMP:  61; 6HR MAX TEMP:  72;

$$

NVZ020-UTZ003-241300-
SOUTHERN NEVADA-UTAH

CITY           SKY/WX    TMP DP  RH WIND       PRES   REMARKS
LAS VEGAS      MOCLDY    59  15  18 S9        29.90F
6HR MIN TEMP:  59; 6HR MAX TEMP:  69;

SALT LAKE CITY PTCLDY    40  23  50 SE14      30.05F WCI  32
6HR MIN TEMP:  39; 6HR MAX TEMP:  44;

$$

NMZ009-TXZ055-241300-
NEW MEXICO-WEST TEXAS

CITY           SKY/WX    TMP DP  RH WIND       PRES   REMARKS
ALBUQUERQUE    CLEAR     48   9  20 NW18G25   30.08R
6HR MIN TEMP:  44; 6HR MAX TEMP:  54;

EL PASO        PTCLDY    67  10  11 N15G23    29.97R
6HR MIN TEMP:  65; 6HR MAX TEMP:  73;

$$


........................KEY........................
SKY/WX - SKY CONDITION/WEATHER
TMP    - TEMPERATURE IN FAHRENHEIT
DP     - DEW POINT IN FAHRENHEIT
RH     - RELATIVE HUMIDITY IN PERCENT
WIND   - DIRECTION AND SPEED IN MILES PER HOUR (MPH)
VRB    - VARIABLE WIND DIRECTION
PRES   - MEAN SEA LEVEL PRESSURE IN INCHES OF MERCURY
         F - FALLING PRESSURE   R - RISING PRESSURE
         S - STEADY PRESSURE
VSB    - VISIBILITY IN MILES
HX     - HEAT INDEX IN FAHRENHEIT
WCI    - WIND CHILL INDEX IN FAHRENHEIT
TC     - TEMPERATURE IN CELSIUS WHICH IS ALSO KNOWN AS
         TEMPERATURE IN CENTIGRADE
AFB    - AIR FORCE BASE
         LUKE AFB IS LUKE AIR FORCE BASE
         DAVIS-MONTHAN IS DAVIS-MONTHAN AIR FORCE BASE
NAS    - NAVAL AIR STATION
         EL CENTRO NAS IS EL CENTRO NAVAL AIR STATION
N/A    - NOT AVAILABLE



USA.gov is the U.S. government's official web portal to all federal, state and local government web resources and services.